Regional Weather Roundup
Issued by NWS Sioux Falls, SD

Home | Current Version | Previous Version | Graphics & Text | Print | Product List | Glossary Off
Versions: 1 2 3 4 5 6 7 8 9 10 11 12 13 14 15 16 17 18 19 20 21 22 23 24 25 26 27 28 29 30 31 32 33 34 35 36 37 38 39 40 41 42 43 44 45 46 47 48 49 50

000
ASUS43 KFSD 221202
RWRFSD

WEATHER ROUNDUP FOR SE SOUTH DAKOTA/SW MINNESOTA/NW IOWA
NATIONAL WEATHER SERVICE SIOUX FALLS SD
600 AM CST MON DEC 22 2014

NOTE: "FAIR" INDICATES FEW OR NO CLOUDS BELOW 12,000 FEET WITH NO
SIGNIFICANT WEATHER AND OR OBSTRUCTIONS TO VISIBILITY.


SDZ038>040-050-052>070-221300-
SOUTHEAST SOUTH DAKOTA

CITY           SKY/WX    TMP DP  RH WIND       PRES   REMARKS
CHAMBERLAIN    NOT AVBL
HURON          CLOUDY    33  32  96 NW7       29.43F FOG     WCI  27
6HR MIN TEMP:  33; 6HR MAX TEMP:  37;

MADISON        LGT RAIN  36  36 100 S9        29.44F
MITCHELL       CLOUDY    36  36 100 SW5       29.44F FOG
6HR MIN TEMP:  36; 6HR MAX TEMP:  38; 6HR PCP:  0.02;

SIOUX FALLS    LGT RAIN  40  39  97 S12       29.46F
6HR MIN TEMP:  40; 6HR MAX TEMP:  40; 6HR PCP:  0.17;

WINNER         CLOUDY    38  35  89 W14       29.46S
YANKTON        CLOUDY    39  37  93 S5        29.47S
$$

MNZ071-072-080-081-089-090-097-098-221300-
SOUTHWEST MINNESOTA

CITY           SKY/WX    TMP DP  RH WIND       PRES   REMARKS
FAIRMONT       CLOUDY    37  36  93 SE18      29.59S
JACKSON        DRIZZLE   37  37 100 S15G21    29.56S
LUVERNE        LGT RAIN  39  37  93 SE10      29.49F
MARSHALL       CLOUDY    37  36  93 SE12      29.52R
6HR MIN TEMP:  37; 6HR MAX TEMP:  39;

MONTEVIDEO     LGT RAIN  37  37 100 S10G16    29.53S
PIPESTONE      DRIZZLE   37  37 100 S10       29.47F
REDWOOD FALLS  LGT RAIN  39  38  96 SE16      29.55S
TRACY          DRIZZLE   39  38  96 S10       29.52S
WINDOM         DRIZZLE   39  39 100 SE12G20   29.54F
WORTHINGTON    CLOUDY    39 -11  11 S10G18    29.53S
$$

IAZ001>003-012>014-020>022-031-032-NEZ013-014-SDZ071-221300-
NORTHWEST IOWA

CITY           SKY/WX    TMP DP  RH WIND       PRES   REMARKS
DENISON        MIX PCPN  41  41 100 S14G22    29.54S
ESTHERVILLE    CLOUDY    38  38 100 S20G25    29.57S FOG
SIOUX CITY     LGT RAIN  43  41  93 S10       29.51F
6HR MIN TEMP:  42; 6HR MAX TEMP:  43; 6HR PCP:  0.10;

SPENCER        LGT RAIN  40  38  93 SE14      29.55F FOG
6HR MIN TEMP:  40; 6HR MAX TEMP:  40; 6HR PCP:  0.01;

$$

ABBREVIATIONS USED IN REMARKS
   TC - TEMPERATURE IN CELSIUS
  WCI - WIND CHILL INDEX
   HX - HEAT INDEX
  VSB - VISIBILITY




USA.gov is the U.S. government's official web portal to all federal, state and local government web resources and services.